Weather History for Idabel, OK

Change the Weather History Date:

Thursday, January 12, 2012

  Actual Average (KDEQ) Record (KDEQ)
Temperature  
Mean Temperature 36 °F 41 °F  
Max Temperature 42 °F 53 °F 77 °F (1995)
Min Temperature 30 °F 30 °F -5 °F (1962)
Degree Days  
Heating Degree Days 29 24  
Month to date heating degree days 282  
Since 1 July heating degree days 1491  
Cooling Degree Days 0 0  
Month to date cooling degree days 0  
Year to date cooling degree days 0  
Moisture  
Dew Point 16 °F    
Average Humidity 50    
Maximum Humidity 75    
Minimum Humidity 33    
Precipitation  
Precipitation 0.00 in 0.11 in 2.28 in (1998)
Month to date precipitation 1.32  
Year to date precipitation 1.32  
Snow  
Snow 0.00 in - - ()
Month to date snowfall  
Since 1 July snowfall  
Snow Depth -    
Sea Level Pressure  
Sea Level Pressure 30.09 in    
Wind  
Wind Speed 18 mph (NW)    
Max Wind Speed 25 mph    
Max Gust Speed 34 mph    
Visibility 10 miles    
Events      
T = Trace of Precipitation, MM = Missing Value Source: NWS Daily Summary

Daily Weather History Graph

Daily Weather History Graph

Search for Another Location

Airport:

Trip Planner

Search our weather history database for the weather conditions in past years. The results will help you decide how hot, cold, wet, or windy it might be!

Date:

Astronomy

Jan. 12, 2012 Rise Set
Actual Time 7:25 AM CST 5:30 PM CST
Civil Twilight 6:57 AM CST 5:57 PM CST
Nautical Twilight 6:27 AM CST 6:28 PM CST
Astronomical Twilight 5:56 AM CST 6:58 PM CST
Moon 9:23 PM CST (1/12) 9:21 AM CST (1/12)
Length of Visible Light 10h 59m
Length of Day
10h 05m
Waning Gibbous, 87% of the Moon is Illuminated
Jan 12
Waning Gibbous
Jan 16
Last Quarter
Jan 23
New
Jan 30
First Quarter
Feb 7
Full

Hourly Weather History & Observations

Time (CST) Temp. Windchill Dew Point Humidity Pressure Visibility Wind Dir Wind Speed Gust Speed Precip Events Conditions
12:15 AM 42.8 °F 34.0 °F 32.0 °F 66% 29.86 in 10.0 mi NNW 20.7 mph 29.9 mph N/A   Scattered Clouds
12:35 AM 42.8 °F 33.8 °F 32.0 °F 66% 29.87 in 10.0 mi NNW 21.9 mph 31.1 mph N/A   Scattered Clouds
12:55 AM 41.0 °F 32.2 °F 32.0 °F 70% 29.89 in 10.0 mi NNW 18.4 mph 32.2 mph N/A   Mostly Cloudy
1:15 AM 39.2 °F 28.5 °F 30.2 °F 70% 29.91 in 10.0 mi NW 24.2 mph 33.4 mph N/A   Overcast
1:35 AM 37.4 °F 25.9 °F 30.2 °F 75% 29.94 in 10.0 mi NW 25.3 mph 34.5 mph N/A   Overcast
1:55 AM 35.6 °F 24.8 °F 28.4 °F 75% 29.95 in 10.0 mi NNW 19.6 mph 31.1 mph N/A   Scattered Clouds
2:15 AM 33.8 °F 22.2 °F 26.6 °F 75% 29.96 in 10.0 mi NW 20.7 mph 31.1 mph N/A   Scattered Clouds
2:35 AM 33.8 °F 23.9 °F 26.6 °F 75% 29.97 in 10.0 mi NNW 15.0 mph 26.5 mph N/A   Mostly Cloudy
2:55 AM 33.8 °F 21.6 °F 26.6 °F 75% 29.97 in 10.0 mi NNW 23.0 mph 32.2 mph N/A   Mostly Cloudy
3:15 AM 32.0 °F 20.5 °F 24.8 °F 75% 29.98 in 10.0 mi NNW 18.4 mph 29.9 mph N/A   Scattered Clouds
3:55 AM 32.0 °F 20.8 °F 24.8 °F 75% 30.01 in 10.0 mi NW 17.3 mph 23.0 mph N/A   Mostly Cloudy
4:15 AM 32.0 °F 20.8 °F 23.0 °F 69% 30.02 in 10.0 mi NNW 17.3 mph 26.5 mph N/A   Mostly Cloudy
4:35 AM 32.0 °F 20.8 °F 23.0 °F 69% 30.03 in 10.0 mi NNW 17.3 mph 33.4 mph N/A   Scattered Clouds
4:55 AM 32.0 °F 21.2 °F 23.0 °F 69% 30.03 in 10.0 mi NNW 16.1 mph 25.3 mph N/A   Scattered Clouds
5:15 AM 32.0 °F 19.5 °F 23.0 °F 69% 30.04 in 10.0 mi NW 21.9 mph 28.8 mph N/A   Mostly Cloudy
5:35 AM 32.0 °F 18.6 °F 19.4 °F 60% 30.07 in 10.0 mi NW 25.3 mph 34.5 mph N/A   Scattered Clouds
6:15 AM 30.2 °F 18.5 °F 17.6 °F 60% 30.10 in 10.0 mi NNW 17.3 mph 23.0 mph N/A   Clear
6:35 AM 30.2 °F 18.1 °F 14.0 °F 51% 30.10 in 10.0 mi NNW 18.4 mph 25.3 mph N/A   Clear
6:55 AM 30.2 °F 20.8 °F 15.8 °F 55% 30.11 in 10.0 mi NW 11.5 mph 17.3 mph N/A   Clear
7:15 AM 30.2 °F 19.8 °F 14.0 °F 51% 30.12 in 10.0 mi NW 13.8 mph 24.2 mph N/A   Clear
7:35 AM 30.2 °F 19.3 °F 12.2 °F 47% 30.12 in 10.0 mi NW 15.0 mph 20.7 mph N/A   Clear
7:55 AM 30.2 °F 18.1 °F 10.4 °F 44% 30.12 in 10.0 mi NW 18.4 mph 25.3 mph N/A   Clear
8:15 AM 30.2 °F 18.9 °F 10.4 °F 44% 30.13 in 10.0 mi NW 16.1 mph 24.2 mph N/A   Clear
8:35 AM 30.2 °F 17.4 °F 10.4 °F 44% 30.13 in 10.0 mi NW 20.7 mph 28.8 mph N/A   Clear
9:15 AM 32.0 °F 20.5 °F 10.4 °F 41% 30.14 in 10.0 mi WNW 18.4 mph 23.0 mph N/A   Clear
9:35 AM 32.0 °F 22.1 °F 10.4 °F 41% 30.14 in 10.0 mi NW 13.8 mph 25.3 mph N/A   Clear
9:55 AM 32.0 °F 19.5 °F 10.4 °F 41% 30.16 in 10.0 mi NW 21.9 mph 26.5 mph N/A   Clear
10:15 AM 32.0 °F 20.1 °F 10.4 °F 41% 30.16 in 10.0 mi NW 19.6 mph 26.5 mph N/A   Clear
10:35 AM 32.0 °F 20.8 °F 8.6 °F 38% 30.16 in 10.0 mi WNW 17.3 mph 27.6 mph N/A   Clear
11:15 AM 33.8 °F 24.8 °F 10.4 °F 38% 30.15 in 10.0 mi NW 12.7 mph 25.3 mph N/A   Clear
11:35 AM 35.6 °F 26.2 °F 10.4 °F 35% 30.14 in 10.0 mi NW 15.0 mph 24.2 mph N/A   Clear
11:55 AM 35.6 °F 25.2 °F 10.4 °F 35% 30.13 in 10.0 mi WNW 18.4 mph 23.0 mph N/A   Clear
12:15 PM 35.6 °F 25.5 °F 12.2 °F 38% 30.13 in 10.0 mi West 17.3 mph 27.6 mph N/A   Clear
12:35 PM 35.6 °F 26.2 °F 12.2 °F 38% 30.12 in 10.0 mi WNW 15.0 mph 25.3 mph N/A   Clear
1:15 PM 37.4 °F 27.2 °F 12.2 °F 36% 30.12 in 10.0 mi WNW 19.6 mph 27.6 mph N/A   Clear
1:35 PM 37.4 °F 28.2 °F 12.2 °F 36% 30.11 in 10.0 mi WNW 16.1 mph 24.2 mph N/A   Clear
1:55 PM 37.4 °F 27.2 °F 12.2 °F 36% 30.11 in 10.0 mi West 19.6 mph 27.6 mph N/A   Clear
2:15 PM 37.4 °F 27.8 °F 14.0 °F 38% 30.12 in 10.0 mi West 17.3 mph 26.5 mph N/A   Clear
2:35 PM 37.4 °F 27.8 °F 12.2 °F 36% 30.12 in 10.0 mi WNW 17.3 mph 25.3 mph N/A   Clear
2:55 PM 37.4 °F 27.8 °F 12.2 °F 36% 30.12 in 10.0 mi West 17.3 mph 24.2 mph N/A   Clear
3:15 PM 37.4 °F 28.2 °F 12.2 °F 36% 30.12 in 10.0 mi West 16.1 mph - N/A   Clear
3:35 PM 37.4 °F 28.2 °F 12.2 °F 36% 30.12 in 10.0 mi West 16.1 mph 23.0 mph N/A   Clear
3:55 PM 37.4 °F 27.2 °F 12.2 °F 36% 30.13 in 10.0 mi West 19.6 mph 25.3 mph N/A   Clear
4:15 PM 37.4 °F 28.5 °F 10.4 °F 33% 30.13 in 10.0 mi West 15.0 mph 21.9 mph N/A   Clear
4:35 PM 37.4 °F 30.3 °F 12.2 °F 36% 30.13 in 10.0 mi WNW 10.4 mph 18.4 mph N/A   Clear
4:55 PM 37.4 °F 28.2 °F 10.4 °F 33% 30.14 in 10.0 mi West 16.1 mph 20.7 mph N/A   Clear
5:35 PM 33.8 °F 25.3 °F 12.2 °F 41% 30.14 in 10.0 mi WNW 11.5 mph 18.4 mph N/A   Clear
5:55 PM 33.8 °F 26.4 °F 12.2 °F 41% 30.15 in 10.0 mi WNW 9.2 mph - N/A   Clear
6:15 PM 32.0 °F 27.5 °F 12.2 °F 44% 30.16 in 10.0 mi WNW 4.6 mph - N/A   Clear
6:35 PM 32.0 °F 26.4 °F 12.2 °F 44% 30.16 in 10.0 mi WNW 5.8 mph - N/A   Clear
6:55 PM 32.0 °F 26.4 °F 12.2 °F 44% 30.17 in 10.0 mi WNW 5.8 mph - N/A   Clear
7:15 PM 32.0 °F 26.4 °F 12.2 °F 44% 30.17 in 10.0 mi WNW 5.8 mph - N/A   Clear
7:35 PM 32.0 °F 26.4 °F 12.2 °F 44% 30.17 in 10.0 mi WNW 5.8 mph - N/A   Clear
8:15 PM 30.2 °F 24.3 °F 12.2 °F 47% 30.18 in 10.0 mi West 5.8 mph - N/A   Clear
8:35 PM 30.2 °F 25.4 °F 12.2 °F 47% 30.18 in 10.0 mi WNW 4.6 mph - N/A   Clear
9:15 PM 30.2 °F 25.4 °F 10.4 °F 44% 30.18 in 10.0 mi WNW 4.6 mph - N/A   Clear
9:35 PM 28.4 °F 23.3 °F 12.2 °F 51% 30.18 in 10.0 mi SW 4.6 mph - N/A   Clear